{"data":{"norad_id":66810,"epoch":"2026-09-20T21:50:06.868608Z","epoch_age_seconds":51094,"freshness":"FRESH","line1":"1 66810U 25278V   26263.90980172  .00010253  00000+0  38134-3 0  9992","line2":"2 66810  43.0044  92.0248 0000758 290.1464  69.9306 15.27602827 45067","mean_motion":15.27602827,"eccentricity":7.58e-5,"inclination_deg":43.0044,"raan_deg":92.0248,"arg_perigee_deg":290.1464,"mean_anomaly_deg":69.9306,"bstar":0.00038134,"rev_number":4506,"period_min":94.265340083715,"perigee_km":482.4606719158,"apogee_km":483.50081736589,"semimajor_km":6861.1177446408,"source":"CELESTRAK","updated_at":"2026-09-21T09:00:36.017310Z"}}